Орийак

Франция     44°54′46″N   2°25′50″E
В апреле 2022 года жителям России запретили посещать сайт meteo.paraplan.net по решению Генеральной прокуратуры. Аудитория сайта уменьшилась в 10 раз. Владельцы сайта не видят смысла в поддержке погодного сервера в таких условиях. Сайт будет закрыт в октябре.
темп.,
°C
ветер,
м/с
пор.,
м/с
влажн.,
%
обл.,
%
осадки,
мм/ч
давл.,
гПа
погр.,
м
30 сентября, пт
пт3023:00+5ссв1192100 0.0 100820
02:00+5ссв1192100 0.0 100923
05:00+4св119595 0.0 100921
08:00+3ссв119584 0.0 101223
11:00+10ссз245812 0.0 10121036
14:00+13ссз35456 0.0 10121725
17:00+14сз35415 0.0 10121844
20:00+9зсз296326 0.0 1016352
1 октября, сб
сб123:00+4ссв11876 0.0 102013
02:00+5всв018591 0.0 102111
05:00+6юз0183100 0.0 102137
08:00+6ююв1299100 0.7 102279
11:00+7ююв1599100 0.3 1023220
14:00+8ююв15100100 1.3 1024251
17:00+9юв13100100 1.9 1024195
20:00+10юв12100100 2.6 102590
2 октября, вс
вс223:00+10ю13100100 0.7 1026189
02:00+12юз15100100 1.1 1026383
05:00+12ююз02100100 0.2 1027244
08:00+11сз1199100 0.3 102733
11:00+12з0198100 0.1 1027118
14:00+16зсз2369100 0.1 1027793
17:00+17зсз2360100 0.0 1026834
20:00+10ссв11974 0.0 102716
3 октября, пн
пн323:00+10св21865 0.0 102624
02:00+9св119211 0.0 102614
05:00+8св119519 0.0 102511
08:00+9св22865 0.0 102529
11:00+17з114556 0.0 1023456
14:00+20сз2333100 0.0 1022996
17:00+20ссз23385 0.0 1020929
20:00+13св226620 0.0 102128
4 октября, вт
вт423:00+11в2269100 0.0 102227
02:00+11в217475 0.0 102123
05:00+10в217147 0.0 102018
08:00+10в116712 0.0 102016
11:00+18юз11455 0.0 1019345
14:00+22зюз22325 0.0 10191088
17:00+22з11330 0.0 10181107
20:00+13св11670 0.0 102012